Weather in Penki

Russia / Kostroma Oblast     58°00′52″N   42°43′05″E
temp.,
°C
wind,
m/s
gust,
m/s
humid.,
%
clouds,
%
prec.,
mm/h
press.,
hPa
HPBL,
m
11 may, tue
tue1100:00+5ne238333 0.0 102949
03:00+4ne22942 0.0 103041
06:00+6ne26805 0.0 1030182
09:00+12ne35505 0.0 1030640
12:00+16ene34375 0.0 1029959
15:00+18e34330 0.0 10281062
18:00+17e24525 0.0 1028125
21:00+10e22675 0.0 102924
12 may, wed
wed1200:00+9e22745 0.0 102927
03:00+8ene22845 0.0 103016
06:00+11ene23795 0.0 103097
09:00+18ene24640 0.0 1029481
12:00+22e34520 0.0 10271005
15:00+24ese46453 0.0 10261906
18:00+20e386496 0.0 1025346
21:00+15se399184 0.3 1025187
13 may, thu
thu1300:00+13sse2482100 0.0 102681
03:00+13ese2482100 0.0 102598
06:00+14ese278244 0.0 1025222
09:00+18ese366155 0.0 1025519
12:00+22se584756 0.0 10231477
15:00+21se48535 0.0 10211064
18:00+19sse5116299 0.0 10201107
21:00+14ese2128866 0.4 1019454
14 may, fri
fri1400:00+14sse31196100 2.2 1018684
03:00+14s269892 2.7 1019425
06:00+14s149126 0.0 1019333
09:00+18ssw34715 0.0 1019733
12:00+21ssw3654100 0.0 10191669
15:00+21ssw355398 0.1 10191668
18:00+20s256883 0.3 1018914
21:00+15se2285100 0.3 101722
15 may, sat
sat1500:00+13sse2392100 0.3 101745
03:00+14ese2797100 3.7 1016197
06:00+15ese2695100 0.1 1015208
09:00+19sse3779100 0.1 1014441
12:00+24sse476065 0.0 10131151
15:00+25sse575787 0.1 10111377
18:00+22s51266100 0.8 10111007
21:00+14s313900 1.0 1011402